EDW130J LSZH-HEGN

Flight info

Callsign EDW130J
Flight time 3h 50m
Altitude 25000
Route DEGES Z2 XEBIX L607 ELMEM N606 GIRIS/N0383F190 N606 NAXAV/N0458F390 DCT SUMIR DCT LISKO DCT LATAN DCT TRL DCT PAXIS L607 NABSI P557 OBRAN L321 REXUM M872 BOPOB BOPOB1A
Aircraft A20N/M-SDE2E3FGHIRWXY/LB1

Departure

Time 2026-05-07 07:08
Airport Zürich Airport (LSZH)

Arrival

Time 2026-05-07 10:58
Airport Hurghada International Airport (HEGN)
Time Latitude Longitude Altitude Speed Heading
2026-05-07 06:56 47.45171 8.55805 1416 ft 0 kts 187°
2026-05-07 07:01 47.45175 8.55805 1415 ft 3 kts 186°
2026-05-07 07:02 47.45193 8.55808 1410 ft 3 kts 186°
2026-05-07 07:02 47.45211 8.55811 1415 ft 3 kts 186°
2026-05-07 07:02 47.45228 8.55813 1413 ft 2 kts 194°
2026-05-07 07:02 47.45241 8.55828 1417 ft 2 kts 266°
2026-05-07 07:03 47.45241 8.55831 1417 ft 0 kts 271°
2026-05-07 07:03 47.45241 8.55829 1417 ft 2 kts 272°
2026-05-07 07:03 47.45255 8.55751 1414 ft 9 kts 284°
2026-05-07 07:03 47.45265 8.55680 1411 ft 5 kts 281°
2026-05-07 07:04 47.45282 8.55590 1417 ft 10 kts 306°
2026-05-07 07:04 47.45340 8.55525 1413 ft 10 kts 328°
2026-05-07 07:04 47.45415 8.55477 1410 ft 15 kts 337°
2026-05-07 07:04 47.45503 8.55421 1405 ft 15 kts 335°
2026-05-07 07:05 47.45611 8.55345 1405 ft 17 kts 339°
2026-05-07 07:05 47.45670 8.55413 1406 ft 10 kts 92°
2026-05-07 07:05 47.45658 8.55602 1407 ft 22 kts 96°
2026-05-07 07:05 47.45644 8.55796 1416 ft 16 kts 96°
2026-05-07 07:06 47.45634 8.55935 1415 ft 14 kts 96°
2026-05-07 07:06 47.45617 8.56185 1420 ft 25 kts 96°
2026-05-07 07:06 47.45601 8.56418 1417 ft 20 kts 96°
2026-05-07 07:06 47.45586 8.56605 1420 ft 18 kts 96°
2026-05-07 07:07 47.45573 8.56790 1423 ft 17 kts 95°
2026-05-07 07:07 47.45563 8.56956 1424 ft 14 kts 89°
2026-05-07 07:07 47.45623 8.57029 1428 ft 18 kts 359°
2026-05-07 07:07 47.45674 8.56865 1425 ft 29 kts 276°
2026-05-07 07:08 47.45721 8.56199 1417 ft 101 kts 275°
2026-05-07 07:08 47.45828 8.54806 1483 ft 159 kts 276°
2026-05-07 07:08 47.45961 8.53182 2248 ft 160 kts 276°
2026-05-07 07:08 47.46076 8.51528 3025 ft 170 kts 275°
2026-05-07 07:09 47.46198 8.49668 3402 ft 192 kts 274°
2026-05-07 07:09 47.46128 8.47652 3995 ft 201 kts 257°
2026-05-07 07:09 47.45580 8.45744 4713 ft 204 kts 243°
2026-05-07 07:09 47.44866 8.43931 5426 ft 205 kts 241°
2026-05-07 07:10 47.44121 8.42127 6089 ft 207 kts 240°
2026-05-07 07:10 47.43371 8.40309 6733 ft 208 kts 240°
2026-05-07 07:10 47.42528 8.38548 7324 ft 215 kts 229°
2026-05-07 07:10 47.41226 8.37304 7894 ft 235 kts 199°
2026-05-07 07:11 47.39560 8.37233 8756 ft 250 kts 169°
2026-05-07 07:11 47.38070 8.38600 9686 ft 262 kts 132°
2026-05-07 07:11 47.37340 8.41073 10504 ft 272 kts 96°
2026-05-07 07:11 47.37658 8.43804 11240 ft 275 kts 60°
2026-05-07 07:12 47.38878 8.45925 12051 ft 272 kts 38°
2026-05-07 07:12 47.40340 8.47701 12873 ft 273 kts 37°
2026-05-07 07:12 47.41813 8.49494 13688 ft 276 kts 38°
2026-05-07 07:12 47.43268 8.51369 14377 ft 282 kts 42°
2026-05-07 07:13 47.44527 8.53709 14696 ft 303 kts 61°
2026-05-07 07:13 47.45243 8.56737 14975 ft 324 kts 78°
2026-05-07 07:13 47.45615 8.60119 15298 ft 344 kts 82°
2026-05-07 07:13 47.45916 8.63719 15611 ft 363 kts 83°
2026-05-07 07:14 47.46184 8.67521 15955 ft 381 kts 85°
2026-05-07 07:14 47.46355 8.71512 16240 ft 398 kts 87°
2026-05-07 07:14 47.46502 8.75658 16693 ft 409 kts 87°
2026-05-07 07:14 47.46637 8.79891 17325 ft 415 kts 89°
2026-05-07 07:15 47.46426 8.84156 17988 ft 419 kts 99°
2026-05-07 07:15 47.45870 8.88403 18623 ft 423 kts 102°
2026-05-07 07:15 47.45258 8.92606 19203 ft 426 kts 103°
2026-05-07 07:15 47.44631 8.96902 19813 ft 429 kts 102°
2026-05-07 07:16 47.44004 9.01223 20426 ft 432 kts 102°
2026-05-07 07:16 47.43373 9.05578 21032 ft 435 kts 102°
2026-05-07 07:16 47.42737 9.09960 21611 ft 438 kts 102°
2026-05-07 07:16 47.42101 9.14372 22211 ft 441 kts 101°
2026-05-07 07:17 47.41679 9.18867 22769 ft 443 kts 92°
2026-05-07 07:17 47.41798 9.23446 23076 ft 451 kts 81°
2026-05-07 07:17 47.42307 9.28045 23545 ft 455 kts 78°
2026-05-07 07:17 47.42964 9.32597 24192 ft 452 kts 76°
2026-05-07 07:18 47.43680 9.37107 24719 ft 452 kts 75°
2026-05-07 07:18 47.44417 9.41638 25141 ft 455 kts 75°
2026-05-07 07:18 47.45151 9.46207 25565 ft 458 kts 76°
2026-05-07 07:18 47.45874 9.50805 25995 ft 461 kts 76°
2026-05-07 07:19 47.46570 9.55444 26422 ft 464 kts 78°
2026-05-07 07:19 47.46970 9.60184 26810 ft 467 kts 86°
2026-05-07 07:19 47.46968 9.65004 27149 ft 472 kts 92°
2026-05-07 07:19 47.46808 9.69882 27411 ft 477 kts 94°
2026-05-07 07:20 47.46566 9.74757 27938 ft 475 kts 95°
2026-05-07 07:20 47.46285 9.79619 28520 ft 473 kts 95°
2026-05-07 07:20 47.45993 9.84454 29058 ft 472 kts 95°
2026-05-07 07:20 47.45701 9.89276 29551 ft 471 kts 95°
2026-05-07 07:21 47.45413 9.94100 30041 ft 471 kts 95°
2026-05-07 07:21 47.45130 9.98909 30444 ft 470 kts 95°
2026-05-07 07:21 47.44854 10.03654 30791 ft 470 kts 96°
2026-05-07 07:21 47.44575 10.08477 30987 ft 474 kts 97°
2026-05-07 07:22 47.44292 10.13347 31211 ft 477 kts 97°
2026-05-07 07:22 47.43921 10.18202 31568 ft 474 kts 102°
2026-05-07 07:22 47.43360 10.22996 31962 ft 473 kts 103°
2026-05-07 07:22 47.42749 10.27828 32316 ft 472 kts 104°
2026-05-07 07:23 47.42128 10.32518 32659 ft 472 kts 104°
2026-05-07 07:23 47.41363 10.37210 32963 ft 469 kts 111°
2026-05-07 07:23 47.40189 10.41677 33272 ft 465 kts 120°
2026-05-07 07:23 47.38578 10.45769 33582 ft 458 kts 130°
2026-05-07 07:24 47.36565 10.49350 33959 ft 450 kts 140°
2026-05-07 07:24 47.34215 10.52342 34188 ft 443 kts 149°
2026-05-07 07:24 47.31627 10.54762 34415 ft 440 kts 154°
2026-05-07 07:24 47.28959 10.56977 34611 ft 440 kts 156°
2026-05-07 07:25 47.23544 10.61186 35036 ft 440 kts 157°
2026-05-07 07:25 47.20826 10.63272 35225 ft 441 kts 156°
2026-05-07 07:25 47.18102 10.65333 35430 ft 440 kts 159°
2026-05-07 07:26 47.15292 10.67074 35655 ft 438 kts 162°
2026-05-07 07:26 47.12455 10.68710 35857 ft 438 kts 163°
2026-05-07 07:26 47.09608 10.70298 36050 ft 438 kts 163°
2026-05-07 07:26 47.06753 10.71863 36232 ft 439 kts 163°
2026-05-07 07:27 47.03887 10.73420 36348 ft 439 kts 164°
2026-05-07 07:27 47.01036 10.74982 36671 ft 436 kts 163°
2026-05-07 07:27 46.98204 10.76561 36927 ft 436 kts 163°
2026-05-07 07:28 46.92514 10.79768 36987 ft 439 kts 163°
2026-05-07 07:28 46.86819 10.82986 36981 ft 439 kts 163°
2026-05-07 07:29 46.81128 10.86199 36982 ft 439 kts 162°
2026-05-07 07:29 46.75837 10.90655 36983 ft 449 kts 145°
2026-05-07 07:30 46.71179 10.96792 36975 ft 453 kts 141°
2026-05-07 07:30 46.66692 11.03252 36970 ft 454 kts 140°
2026-05-07 07:31 46.62229 11.09723 36960 ft 452 kts 140°
2026-05-07 07:31 46.57741 11.16148 36965 ft 453 kts 141°
2026-05-07 07:32 46.53234 11.22545 36964 ft 453 kts 141°
2026-05-07 07:32 46.48562 11.28599 36995 ft 446 kts 150°
2026-05-07 07:33 46.43097 11.32473 36979 ft 432 kts 169°
2026-05-07 07:33 46.37251 11.34057 36956 ft 425 kts 176°
2026-05-07 07:34 46.31382 11.35100 36953 ft 424 kts 177°
2026-05-07 07:34 46.25627 11.37255 36958 ft 435 kts 161°
2026-05-07 07:35 46.20392 11.41823 36963 ft 444 kts 150°
2026-05-07 07:35 46.15436 11.47182 36965 ft 446 kts 148°
2026-05-07 07:36 46.10523 11.52657 36966 ft 446 kts 148°
2026-05-07 07:36 46.05591 11.58087 36969 ft 446 kts 148°
2026-05-07 07:37 46.00644 11.63464 36972 ft 446 kts 149°
2026-05-07 07:37 45.95696 11.68811 36965 ft 444 kts 149°
2026-05-07 07:38 45.90749 11.74143 36980 ft 446 kts 149°
2026-05-07 07:38 45.85814 11.79452 36980 ft 447 kts 149°
2026-05-07 07:39 45.80840 11.84793 36976 ft 447 kts 149°
2026-05-07 07:39 45.75861 11.90129 36979 ft 446 kts 149°
2026-05-07 07:40 45.70893 11.95441 36980 ft 446 kts 149°
2026-05-07 07:40 45.65913 12.00751 36966 ft 447 kts 149°
2026-05-07 07:41 45.60931 12.06052 36965 ft 447 kts 149°
2026-05-07 07:41 45.55945 12.11345 36968 ft 446 kts 149°
2026-05-07 07:42 45.50961 12.16626 36957 ft 446 kts 149°
2026-05-07 07:42 45.46008 12.21862 36965 ft 446 kts 149°
2026-05-07 07:43 45.41023 12.27119 36976 ft 446 kts 149°
2026-05-07 07:43 45.36034 12.32368 36975 ft 446 kts 149°
2026-05-07 07:44 45.31046 12.37605 36969 ft 446 kts 149°
2026-05-07 07:44 45.26049 12.42839 36970 ft 447 kts 150°
2026-05-07 07:45 45.21046 12.48067 36973 ft 446 kts 150°
2026-05-07 07:45 45.16045 12.53284 36976 ft 446 kts 150°
2026-05-07 07:46 45.11042 12.58489 36977 ft 446 kts 150°
2026-05-07 07:46 45.06036 12.63686 36970 ft 446 kts 150°
2026-05-07 07:47 45.01023 12.68878 36981 ft 447 kts 150°
2026-05-07 07:47 44.96006 12.74064 36974 ft 446 kts 150°
2026-05-07 07:48 44.91845 12.78358 36977 ft 446 kts 150°
2026-05-07 07:48 44.86835 12.83514 36981 ft 446 kts 150°
2026-05-07 07:49 44.81820 12.88665 36991 ft 447 kts 150°
2026-05-07 07:49 44.76794 12.93815 36987 ft 447 kts 150°
2026-05-07 07:50 44.71761 12.98961 36968 ft 447 kts 150°
2026-05-07 07:50 44.66734 13.04093 36985 ft 446 kts 150°
2026-05-07 07:51 44.61711 13.09207 36971 ft 446 kts 150°
2026-05-07 07:51 44.56673 13.14323 36978 ft 447 kts 150°
2026-05-07 07:52 44.51628 13.19438 36983 ft 448 kts 150°
2026-05-07 07:52 44.46579 13.24545 36953 ft 448 kts 151°
2026-05-07 07:53 44.41537 13.29635 36985 ft 446 kts 151°
2026-05-07 07:53 44.36499 13.34710 36988 ft 447 kts 151°
2026-05-07 07:54 44.31448 13.39784 36987 ft 447 kts 151°
2026-05-07 07:54 44.26431 13.44815 36990 ft 447 kts 151°
2026-05-07 07:55 44.21377 13.49873 36988 ft 447 kts 151°
2026-05-07 07:55 44.16327 13.54915 36992 ft 447 kts 150°
2026-05-07 07:56 44.11274 13.59948 36988 ft 447 kts 150°
2026-05-07 07:56 44.06215 13.64978 36997 ft 447 kts 150°
2026-05-07 07:57 44.01156 13.69997 36989 ft 447 kts 150°
2026-05-07 07:57 43.96093 13.75008 37000 ft 447 kts 150°
2026-05-07 07:58 43.91030 13.80009 36997 ft 447 kts 150°
2026-05-07 07:58 43.85964 13.85003 37001 ft 447 kts 150°
2026-05-07 07:59 43.80898 13.89987 37003 ft 446 kts 151°
2026-05-07 07:59 43.75837 13.94954 36990 ft 446 kts 151°
2026-05-07 08:00 43.70767 13.99918 37004 ft 447 kts 150°
2026-05-07 08:00 43.65720 14.04851 37007 ft 447 kts 150°
2026-05-07 08:01 43.60635 14.09811 37010 ft 447 kts 150°
2026-05-07 08:01 43.55695 14.15081 37007 ft 452 kts 145°
2026-05-07 08:02 43.50978 14.20825 37005 ft 453 kts 144°
2026-05-07 08:02 43.46293 14.26664 37002 ft 455 kts 143°
2026-05-07 08:03 43.41597 14.32517 37000 ft 455 kts 143°
2026-05-07 08:03 43.36893 14.38348 37001 ft 455 kts 143°
2026-05-07 08:04 43.32187 14.44158 37002 ft 455 kts 143°
2026-05-07 08:04 43.27470 14.49965 37001 ft 456 kts 143°
2026-05-07 08:05 43.22748 14.55767 37000 ft 456 kts 143°
2026-05-07 08:05 43.18023 14.61561 36999 ft 456 kts 143°
2026-05-07 08:06 43.13293 14.67349 36996 ft 456 kts 143°
2026-05-07 08:06 43.08561 14.73127 36996 ft 456 kts 143°
2026-05-07 08:07 43.03826 14.78894 36996 ft 456 kts 143°
2026-05-07 08:07 42.99085 14.84658 36996 ft 456 kts 143°
2026-05-07 08:08 42.94373 14.90374 36999 ft 456 kts 143°
2026-05-07 08:08 42.89622 14.96124 36994 ft 456 kts 143°
2026-05-07 08:09 42.84875 15.01858 36997 ft 456 kts 143°
2026-05-07 08:09 42.80127 15.07582 36991 ft 456 kts 143°
2026-05-07 08:10 42.75365 15.13308 36991 ft 457 kts 143°
2026-05-07 08:10 42.70600 15.19027 36995 ft 457 kts 143°
2026-05-07 08:11 42.65833 15.24736 36999 ft 457 kts 143°
2026-05-07 08:11 42.61062 15.30438 36987 ft 456 kts 143°
2026-05-07 08:12 42.56300 15.36118 36996 ft 456 kts 143°
2026-05-07 08:12 42.51531 15.41792 36998 ft 456 kts 143°
2026-05-07 08:13 42.46758 15.47460 36996 ft 456 kts 143°
2026-05-07 08:13 42.42016 15.53079 37004 ft 456 kts 143°
2026-05-07 08:14 42.37238 15.58729 37004 ft 456 kts 143°
2026-05-07 08:14 42.32456 15.64371 36989 ft 457 kts 143°
2026-05-07 08:15 42.27667 15.70010 37013 ft 456 kts 143°
2026-05-07 08:15 42.22881 15.75636 37012 ft 456 kts 143°
2026-05-07 08:16 42.18097 15.81245 37027 ft 456 kts 143°
2026-05-07 08:16 42.13305 15.86853 37031 ft 456 kts 143°
2026-05-07 08:17 42.08511 15.92451 37036 ft 457 kts 143°
2026-05-07 08:17 42.03701 15.98054 37018 ft 458 kts 143°
2026-05-07 08:18 41.98891 16.03650 37019 ft 456 kts 143°
2026-05-07 08:18 41.94091 16.09221 37022 ft 455 kts 143°
2026-05-07 08:19 41.89295 16.14775 37020 ft 455 kts 143°
2026-05-07 08:19 41.84490 16.20327 37020 ft 456 kts 143°
2026-05-07 08:20 41.79673 16.25882 37029 ft 457 kts 143°
2026-05-07 08:20 41.74883 16.31395 37029 ft 457 kts 143°
2026-05-07 08:21 41.70055 16.36941 37030 ft 457 kts 144°
2026-05-07 08:21 41.65234 16.42468 37033 ft 456 kts 144°
2026-05-07 08:22 41.60414 16.47983 37029 ft 456 kts 144°
2026-05-07 08:22 41.55589 16.53490 37036 ft 456 kts 144°
2026-05-07 08:23 41.50765 16.58986 37036 ft 456 kts 144°
2026-05-07 08:23 41.45935 16.64477 37039 ft 456 kts 144°
2026-05-07 08:24 41.41102 16.69961 37015 ft 456 kts 144°
2026-05-07 08:24 41.36270 16.75433 37026 ft 456 kts 144°
2026-05-07 08:25 41.31429 16.80903 37026 ft 456 kts 144°
2026-05-07 08:25 41.26619 16.86327 37027 ft 456 kts 144°
2026-05-07 08:26 41.19317 16.94542 37045 ft 456 kts 144°
2026-05-07 08:26 41.14467 16.99984 37050 ft 456 kts 144°
2026-05-07 08:27 41.09647 17.05382 37043 ft 457 kts 144°
2026-05-07 08:27 41.04792 17.10809 37056 ft 456 kts 144°
2026-05-07 08:28 40.99940 17.16221 37056 ft 456 kts 144°
2026-05-07 08:28 40.95081 17.21629 37064 ft 456 kts 144°
2026-05-07 08:29 40.90220 17.27030 37061 ft 456 kts 144°
2026-05-07 08:29 40.85351 17.32428 37068 ft 458 kts 145°
2026-05-07 08:30 40.80449 17.37849 37075 ft 460 kts 145°
2026-05-07 08:30 40.75538 17.43274 37082 ft 460 kts 144°
2026-05-07 08:31 40.70630 17.48686 37072 ft 460 kts 144°
2026-05-07 08:31 40.65758 17.54046 37080 ft 460 kts 145°
2026-05-07 08:32 40.60845 17.59438 37082 ft 461 kts 145°
2026-05-07 08:32 40.55905 17.64849 37078 ft 463 kts 145°
2026-05-07 08:33 40.50949 17.70268 37078 ft 463 kts 145°
2026-05-07 08:33 40.45991 17.75680 37080 ft 463 kts 145°
2026-05-07 08:34 40.41019 17.81095 37092 ft 465 kts 145°
2026-05-07 08:34 40.36035 17.86512 37092 ft 466 kts 145°
2026-05-07 08:35 40.31025 17.91945 37099 ft 468 kts 145°
2026-05-07 08:35 40.26001 17.97385 37102 ft 469 kts 145°
2026-05-07 08:36 40.20973 18.02819 37102 ft 469 kts 145°
2026-05-07 08:36 40.15944 18.08243 37102 ft 469 kts 145°
2026-05-07 08:37 40.10910 18.13661 37087 ft 469 kts 146°
2026-05-07 08:37 40.05837 18.19105 37102 ft 474 kts 146°
2026-05-07 08:38 40.00731 18.24579 37101 ft 475 kts 146°
2026-05-07 08:38 39.95655 18.30012 37102 ft 475 kts 146°
2026-05-07 08:39 39.90542 18.35472 37105 ft 475 kts 146°
2026-05-07 08:39 39.85393 18.40959 37093 ft 475 kts 146°
2026-05-07 08:40 39.80285 18.46387 37104 ft 479 kts 146°
2026-05-07 08:40 39.75109 18.51879 37105 ft 481 kts 146°
2026-05-07 08:41 39.70766 18.56482 37108 ft 481 kts 146°
2026-05-07 08:41 39.65615 18.61930 37107 ft 481 kts 146°
2026-05-07 08:42 39.60425 18.67408 37105 ft 481 kts 146°
2026-05-07 08:42 39.55220 18.72889 37108 ft 484 kts 147°
2026-05-07 08:43 39.49987 18.78387 37092 ft 485 kts 147°
2026-05-07 08:43 39.44744 18.83888 37112 ft 486 kts 147°
2026-05-07 08:44 39.39493 18.89387 37111 ft 486 kts 147°
2026-05-07 08:44 39.34237 18.94879 37111 ft 486 kts 147°
2026-05-07 08:45 39.29191 19.00751 37111 ft 496 kts 135°
2026-05-07 08:45 39.24991 19.07898 37114 ft 501 kts 130°
2026-05-07 08:46 39.21006 19.15296 37103 ft 503 kts 129°
2026-05-07 08:46 39.17053 19.22722 37108 ft 502 kts 129°
2026-05-07 08:47 39.13076 19.30120 37104 ft 502 kts 129°
2026-05-07 08:47 39.09081 19.37490 37105 ft 502 kts 129°
2026-05-07 08:48 39.05077 19.44848 37110 ft 502 kts 129°
2026-05-07 08:48 39.01067 19.52199 37116 ft 502 kts 129°
2026-05-07 08:49 38.97055 19.59540 37115 ft 502 kts 129°
2026-05-07 08:49 38.93066 19.66823 37117 ft 502 kts 129°
2026-05-07 08:50 38.89045 19.74147 37117 ft 502 kts 130°
2026-05-07 08:50 38.85021 19.81461 37107 ft 502 kts 129°
2026-05-07 08:51 38.80990 19.88771 37113 ft 502 kts 129°
2026-05-07 08:51 38.76955 19.96071 37110 ft 502 kts 129°
2026-05-07 08:52 38.72914 20.03366 37115 ft 502 kts 129°
2026-05-07 08:52 38.68865 20.10658 37118 ft 505 kts 130°
2026-05-07 08:53 38.64769 20.18014 37117 ft 509 kts 130°
2026-05-07 08:53 38.60664 20.25377 37123 ft 508 kts 130°
2026-05-07 08:54 38.56557 20.32726 37122 ft 508 kts 130°
2026-05-07 08:54 38.52472 20.40019 37123 ft 508 kts 130°
2026-05-07 08:55 38.48355 20.47351 37121 ft 508 kts 130°
2026-05-07 08:55 38.44230 20.54679 37127 ft 509 kts 130°
2026-05-07 08:56 38.40098 20.62005 37126 ft 509 kts 130°
2026-05-07 08:56 38.35949 20.69343 37135 ft 513 kts 130°
2026-05-07 08:57 38.31753 20.76744 37131 ft 517 kts 130°
2026-05-07 08:57 38.27546 20.84155 37129 ft 516 kts 130°
2026-05-07 08:58 38.23330 20.91563 37132 ft 517 kts 130°
2026-05-07 08:58 38.19106 20.98969 37133 ft 517 kts 130°
2026-05-07 08:59 38.14876 21.06368 37132 ft 517 kts 130°
2026-05-07 08:59 38.10638 21.13764 37130 ft 517 kts 130°
2026-05-07 09:00 38.06404 21.21137 37106 ft 516 kts 130°
2026-05-07 09:00 38.02172 21.28485 37132 ft 524 kts 130°
2026-05-07 09:01 37.97850 21.35972 37134 ft 527 kts 130°
2026-05-07 09:01 37.95683 21.39723 37302 ft 527 kts 130°
2026-05-07 09:01 37.93516 21.43470 37518 ft 527 kts 130°
2026-05-07 09:02 37.91347 21.47218 37713 ft 528 kts 130°
2026-05-07 09:02 37.89175 21.50964 37892 ft 528 kts 130°
2026-05-07 09:02 37.86997 21.54716 38071 ft 529 kts 130°
2026-05-07 09:02 37.84816 21.58469 38246 ft 529 kts 130°
2026-05-07 09:03 37.82631 21.62223 38443 ft 530 kts 130°
2026-05-07 09:03 37.80444 21.65978 38610 ft 530 kts 130°
2026-05-07 09:03 37.78255 21.69732 38789 ft 531 kts 130°
2026-05-07 09:03 37.76065 21.73483 38941 ft 530 kts 130°
2026-05-07 09:04 37.73874 21.77231 39095 ft 530 kts 130°
2026-05-07 09:04 37.71678 21.80984 39110 ft 531 kts 130°
2026-05-07 09:04 37.67262 21.88513 39141 ft 537 kts 130°
2026-05-07 09:05 37.62789 21.96123 39134 ft 541 kts 130°
2026-05-07 09:05 37.58315 22.03730 39127 ft 539 kts 130°
2026-05-07 09:06 37.53843 22.11310 39132 ft 539 kts 130°
2026-05-07 09:06 37.49367 22.18874 39135 ft 539 kts 130°
2026-05-07 09:07 37.44916 22.26380 39138 ft 539 kts 130°
2026-05-07 09:07 37.40427 22.33928 39130 ft 539 kts 131°
2026-05-07 09:08 37.35777 22.41324 39137 ft 541 kts 133°
2026-05-07 09:08 37.31011 22.48659 39122 ft 542 kts 133°
2026-05-07 09:09 37.26236 22.56001 39131 ft 543 kts 133°
2026-05-07 09:09 37.21468 22.63358 39139 ft 543 kts 133°
2026-05-07 09:10 37.16705 22.70712 39146 ft 543 kts 133°
2026-05-07 09:10 37.11935 22.78062 39137 ft 543 kts 133°
2026-05-07 09:11 37.07167 22.85390 39123 ft 543 kts 133°
2026-05-07 09:11 37.02389 22.92713 39141 ft 543 kts 133°
2026-05-07 09:12 36.97602 23.00035 39144 ft 544 kts 133°
2026-05-07 09:12 36.92804 23.07361 39137 ft 544 kts 133°
2026-05-07 09:13 36.88008 23.14667 39142 ft 543 kts 133°
2026-05-07 09:13 36.83207 23.21963 39139 ft 544 kts 133°
2026-05-07 09:14 36.78402 23.29249 39134 ft 544 kts 133°
2026-05-07 09:14 36.73591 23.36528 39129 ft 543 kts 132°
2026-05-07 09:15 36.68783 23.43788 39142 ft 542 kts 132°
2026-05-07 09:15 36.64008 23.50983 39143 ft 543 kts 132°
2026-05-07 09:16 36.59158 23.58274 39144 ft 543 kts 132°
2026-05-07 09:16 36.54368 23.65459 39149 ft 543 kts 132°
2026-05-07 09:17 36.49545 23.72680 39149 ft 543 kts 132°
2026-05-07 09:17 36.44712 23.79898 39152 ft 543 kts 132°
2026-05-07 09:18 36.39875 23.87108 39156 ft 543 kts 131°
2026-05-07 09:18 36.35036 23.94305 39154 ft 543 kts 131°
2026-05-07 09:19 36.30195 24.01491 39151 ft 543 kts 131°
2026-05-07 09:19 36.25350 24.08665 39159 ft 543 kts 131°
2026-05-07 09:20 36.20496 24.15839 39162 ft 544 kts 131°
2026-05-07 09:20 36.15633 24.23011 39162 ft 544 kts 131°
2026-05-07 09:21 36.10766 24.30174 39158 ft 544 kts 131°
2026-05-07 09:21 36.05895 24.37327 39156 ft 543 kts 131°
2026-05-07 09:22 36.01056 24.44417 39165 ft 544 kts 131°
2026-05-07 09:22 35.96170 24.51562 39165 ft 545 kts 131°
2026-05-07 09:23 35.91280 24.58699 39159 ft 545 kts 131°
2026-05-07 09:23 35.86381 24.65832 39166 ft 545 kts 131°
2026-05-07 09:24 35.81481 24.72953 39158 ft 545 kts 131°
2026-05-07 09:24 35.76579 24.80062 39165 ft 545 kts 131°
2026-05-07 09:25 35.71669 24.87167 39164 ft 545 kts 131°
2026-05-07 09:25 35.66759 24.94259 39157 ft 545 kts 131°
2026-05-07 09:26 35.61875 25.01296 39170 ft 544 kts 131°
2026-05-07 09:26 35.56951 25.08378 39169 ft 545 kts 131°
2026-05-07 09:27 35.52016 25.15461 39165 ft 546 kts 131°
2026-05-07 09:28 35.44608 25.26065 39152 ft 546 kts 131°
2026-05-07 09:28 35.39665 25.33122 39172 ft 545 kts 131°
2026-05-07 09:29 35.34721 25.40166 39165 ft 546 kts 131°
2026-05-07 09:29 35.29766 25.47212 39167 ft 546 kts 131°
2026-05-07 09:30 35.24805 25.54252 39162 ft 546 kts 131°
2026-05-07 09:30 35.19839 25.61285 39179 ft 546 kts 131°
2026-05-07 09:31 35.14865 25.68311 39173 ft 547 kts 131°
2026-05-07 09:31 35.09885 25.75336 39170 ft 547 kts 131°
2026-05-07 09:32 35.04896 25.82357 39178 ft 547 kts 130°
2026-05-07 09:32 34.99913 25.89359 39178 ft 546 kts 131°
2026-05-07 09:33 34.94958 25.96306 39179 ft 546 kts 130°
2026-05-07 09:33 34.89966 26.03289 39176 ft 547 kts 130°
2026-05-07 09:34 34.84965 26.10271 39176 ft 547 kts 130°
2026-05-07 09:34 34.79961 26.17243 39178 ft 547 kts 131°
2026-05-07 09:35 34.74951 26.24211 39178 ft 547 kts 131°
2026-05-07 09:35 34.70788 26.29989 39179 ft 546 kts 130°
2026-05-07 09:36 34.65784 26.36922 39185 ft 545 kts 130°
2026-05-07 09:36 34.60781 26.43840 39175 ft 545 kts 130°
2026-05-07 09:37 34.55772 26.50751 39174 ft 545 kts 130°
2026-05-07 09:37 34.50761 26.57653 39180 ft 545 kts 130°
2026-05-07 09:38 34.45744 26.64549 39175 ft 545 kts 130°
2026-05-07 09:38 34.40729 26.71429 39176 ft 545 kts 130°
2026-05-07 09:39 34.35711 26.78298 39176 ft 544 kts 130°
2026-05-07 09:39 34.30700 26.85146 39171 ft 543 kts 130°
2026-05-07 09:40 34.25686 26.91984 39177 ft 543 kts 129°
2026-05-07 09:40 34.20675 26.98805 39175 ft 543 kts 129°
2026-05-07 09:41 34.15662 27.05616 39173 ft 543 kts 129°
2026-05-07 09:41 34.10643 27.12422 39173 ft 543 kts 130°
2026-05-07 09:42 34.05621 27.19217 39167 ft 542 kts 129°
2026-05-07 09:42 34.00612 27.25980 39171 ft 539 kts 129°
2026-05-07 09:43 33.95503 27.32580 39169 ft 540 kts 139°
2026-05-07 09:43 33.89477 27.37985 39170 ft 540 kts 146°
2026-05-07 09:44 33.83282 27.43009 39169 ft 541 kts 147°
2026-05-07 09:44 33.77001 27.47996 39177 ft 541 kts 147°
2026-05-07 09:45 33.70735 27.52986 39171 ft 540 kts 146°
2026-05-07 09:45 33.64489 27.57981 39179 ft 539 kts 146°
2026-05-07 09:46 33.58251 27.62971 39166 ft 539 kts 146°
2026-05-07 09:46 33.52006 27.67959 39170 ft 539 kts 146°
2026-05-07 09:47 33.45761 27.72936 39152 ft 539 kts 146°
2026-05-07 09:47 33.39520 27.77899 39167 ft 538 kts 146°
2026-05-07 09:48 33.33292 27.82846 39171 ft 537 kts 146°
2026-05-07 09:48 33.27043 27.87799 39171 ft 537 kts 146°
2026-05-07 09:49 33.20813 27.92729 39171 ft 537 kts 146°
2026-05-07 09:49 33.14578 27.97654 39172 ft 537 kts 146°
2026-05-07 09:50 33.08358 28.02559 39173 ft 535 kts 146°
2026-05-07 09:50 33.02147 28.07448 39180 ft 535 kts 146°
2026-05-07 09:51 32.95957 28.12313 39174 ft 531 kts 146°
2026-05-07 09:51 32.89789 28.17151 39174 ft 531 kts 146°
2026-05-07 09:52 32.83621 28.21982 39172 ft 530 kts 145°
2026-05-07 09:52 32.77474 28.26788 39176 ft 528 kts 145°
2026-05-07 09:53 32.71335 28.31581 39175 ft 528 kts 145°
2026-05-07 09:53 32.65189 28.36370 39176 ft 528 kts 145°
2026-05-07 09:54 32.59093 28.41112 39174 ft 526 kts 145°
2026-05-07 09:54 32.52978 28.45862 39174 ft 525 kts 145°
2026-05-07 09:55 32.46865 28.50602 39172 ft 525 kts 145°
2026-05-07 09:55 32.40746 28.55339 39175 ft 525 kts 145°
2026-05-07 09:56 32.34628 28.60068 39177 ft 525 kts 145°
2026-05-07 09:56 32.28504 28.64792 39157 ft 525 kts 145°
2026-05-07 09:57 32.22396 28.69496 39174 ft 522 kts 145°
2026-05-07 09:57 32.16334 28.74158 39170 ft 519 kts 145°
2026-05-07 09:58 32.10282 28.78806 39168 ft 519 kts 145°
2026-05-07 09:58 32.04228 28.83448 39170 ft 519 kts 145°
2026-05-07 09:59 31.98169 28.88085 39158 ft 519 kts 145°
2026-05-07 09:59 31.92118 28.92708 39164 ft 518 kts 145°
2026-05-07 10:00 31.86077 28.97317 39173 ft 517 kts 145°
2026-05-07 10:00 31.80063 29.01898 39167 ft 514 kts 145°
2026-05-07 10:01 31.73795 29.05888 39167 ft 514 kts 161°
2026-05-07 10:01 31.70347 29.06927 39165 ft 511 kts 174°
2026-05-07 10:01 31.66818 29.07311 39160 ft 509 kts 179°
2026-05-07 10:02 31.59741 29.07542 39162 ft 509 kts 182°
2026-05-07 10:02 31.52661 29.07558 39163 ft 509 kts 182°
2026-05-07 10:03 31.45581 29.07594 39148 ft 509 kts 182°
2026-05-07 10:03 31.38503 29.07675 39159 ft 508 kts 182°
2026-05-07 10:04 31.31430 29.07775 39160 ft 508 kts 182°
2026-05-07 10:04 31.24362 29.07877 39160 ft 508 kts 182°
2026-05-07 10:05 31.17295 29.07978 39150 ft 508 kts 182°
2026-05-07 10:05 31.10239 29.08080 39151 ft 507 kts 182°
2026-05-07 10:06 31.03232 29.08181 39155 ft 507 kts 182°
2026-05-07 10:06 30.96182 29.08282 39146 ft 507 kts 182°
2026-05-07 10:07 30.89095 29.08384 39143 ft 505 kts 182°
2026-05-07 10:07 30.82118 29.08484 39143 ft 505 kts 182°
2026-05-07 10:08 30.75095 29.08584 39143 ft 505 kts 182°
2026-05-07 10:08 30.68073 29.08685 39138 ft 504 kts 182°
2026-05-07 10:09 30.61083 29.08785 39131 ft 502 kts 182°
2026-05-07 10:09 30.54120 29.09328 39131 ft 504 kts 169°
2026-05-07 10:09 30.50762 29.10491 39125 ft 505 kts 157°
2026-05-07 10:10 30.47661 29.12381 39127 ft 503 kts 144°
2026-05-07 10:10 30.42446 29.17709 39121 ft 500 kts 132°
2026-05-07 10:11 30.37623 29.23532 39119 ft 501 kts 130°
2026-05-07 10:11 30.32849 29.29388 39106 ft 498 kts 132°
2026-05-07 10:12 30.28080 29.35153 39111 ft 495 kts 132°
2026-05-07 10:12 30.23297 29.40875 39113 ft 495 kts 133°
2026-05-07 10:13 30.18506 29.46583 39108 ft 495 kts 133°
2026-05-07 10:13 30.13711 29.52289 39108 ft 495 kts 133°
2026-05-07 10:14 30.08919 29.57985 39102 ft 493 kts 133°
2026-05-07 10:14 30.04150 29.63646 39117 ft 491 kts 134°
2026-05-07 10:15 29.99383 29.69297 39112 ft 491 kts 134°
2026-05-07 10:15 29.94612 29.74944 39107 ft 491 kts 134°
2026-05-07 10:16 29.89838 29.80587 39109 ft 492 kts 134°
2026-05-07 10:16 29.85623 29.85562 39111 ft 491 kts 134°
2026-05-07 10:17 29.80869 29.91166 39114 ft 488 kts 134°
2026-05-07 10:17 29.76118 29.96757 39112 ft 488 kts 134°
2026-05-07 10:18 29.71368 30.02339 39117 ft 488 kts 134°
2026-05-07 10:18 29.66618 30.07914 39111 ft 488 kts 134°
2026-05-07 10:19 29.61864 30.13484 39117 ft 487 kts 134°
2026-05-07 10:19 29.57130 30.19025 39107 ft 485 kts 134°
2026-05-07 10:20 29.52405 30.24547 39107 ft 484 kts 134°
2026-05-07 10:20 29.47680 30.30060 39103 ft 484 kts 134°
2026-05-07 10:21 29.42949 30.35572 39100 ft 485 kts 134°
2026-05-07 10:21 29.39024 30.40153 39102 ft 485 kts 135°
2026-05-07 10:22 29.34349 30.45715 39099 ft 484 kts 134°
2026-05-07 10:22 29.28939 30.52192 39097 ft 484 kts 134°
2026-05-07 10:23 29.24281 30.57753 39094 ft 484 kts 134°
2026-05-07 10:23 29.20373 30.62406 39100 ft 484 kts 134°
2026-05-07 10:24 29.15705 30.67951 39101 ft 484 kts 134°
2026-05-07 10:24 29.11066 30.73456 39099 ft 484 kts 134°
2026-05-07 10:25 29.06393 30.78993 39099 ft 484 kts 134°
2026-05-07 10:25 29.01716 30.84528 39090 ft 484 kts 134°
2026-05-07 10:26 28.97040 30.90053 39088 ft 484 kts 135°
2026-05-07 10:26 28.92361 30.95575 39090 ft 484 kts 135°
2026-05-07 10:27 28.87693 31.01076 39089 ft 481 kts 135°
2026-05-07 10:27 28.83048 31.06542 39085 ft 479 kts 135°
2026-05-07 10:28 28.78406 31.11996 39078 ft 479 kts 135°
2026-05-07 10:28 28.73762 31.17447 39081 ft 479 kts 135°
2026-05-07 10:29 28.69132 31.22913 39073 ft 480 kts 134°
2026-05-07 10:29 28.64639 31.28523 39079 ft 479 kts 133°
2026-05-07 10:30 28.57979 31.36983 39081 ft 478 kts 133°
2026-05-07 10:30 28.53523 31.42604 39083 ft 478 kts 133°
2026-05-07 10:31 28.49087 31.48174 39074 ft 478 kts 134°
2026-05-07 10:31 28.44616 31.53775 39081 ft 478 kts 134°
2026-05-07 10:32 28.40155 31.59358 39077 ft 476 kts 134°
2026-05-07 10:32 28.35706 31.64918 39075 ft 476 kts 134°
2026-05-07 10:33 28.31254 31.70475 39062 ft 476 kts 134°
2026-05-07 10:33 28.26796 31.76031 39068 ft 476 kts 134°
2026-05-07 10:34 28.22335 31.81586 39070 ft 476 kts 134°
2026-05-07 10:34 28.17878 31.87126 39066 ft 475 kts 134°
2026-05-07 10:35 28.13422 31.92659 39068 ft 475 kts 134°
2026-05-07 10:35 28.08966 31.98184 39059 ft 475 kts 134°
2026-05-07 10:36 28.04515 32.03719 39058 ft 476 kts 131°
2026-05-07 10:36 28.01010 32.10078 39045 ft 477 kts 121°
2026-05-07 10:37 27.97806 32.16661 39042 ft 477 kts 120°
2026-05-07 10:37 27.94622 32.23255 39028 ft 477 kts 120°
2026-05-07 10:38 27.91462 32.29800 39014 ft 477 kts 120°
2026-05-07 10:38 27.88277 32.36388 39000 ft 478 kts 121°
2026-05-07 10:39 27.85089 32.42970 38991 ft 477 kts 121°
2026-05-07 10:39 27.81904 32.49536 38992 ft 476 kts 121°
2026-05-07 10:40 27.78718 32.56095 38991 ft 476 kts 121°
2026-05-07 10:40 27.75526 32.62655 38983 ft 476 kts 121°
2026-05-07 10:41 27.73938 32.65917 38696 ft 473 kts 121°
2026-05-07 10:41 27.72351 32.69172 37989 ft 475 kts 121°
2026-05-07 10:41 27.70754 32.72445 37222 ft 478 kts 121°
2026-05-07 10:41 27.69145 32.75737 36472 ft 480 kts 121°
2026-05-07 10:42 27.67530 32.79042 35785 ft 482 kts 121°
2026-05-07 10:42 27.65910 32.82356 35112 ft 483 kts 121°
2026-05-07 10:42 27.64292 32.85663 34288 ft 481 kts 120°
2026-05-07 10:42 27.62672 32.88971 33215 ft 482 kts 120°
2026-05-07 10:43 27.61048 32.92283 32074 ft 484 kts 120°
2026-05-07 10:43 27.59419 32.95604 30955 ft 485 kts 120°
2026-05-07 10:43 27.57786 32.98931 29816 ft 485 kts 120°
2026-05-07 10:43 27.56174 33.02213 28496 ft 486 kts 120°
2026-05-07 10:44 27.54535 33.05545 27176 ft 487 kts 120°
2026-05-07 10:44 27.52897 33.08875 25955 ft 485 kts 120°
2026-05-07 10:44 27.51263 33.12194 24761 ft 483 kts 120°
2026-05-07 10:44 27.49644 33.15480 23929 ft 474 kts 120°
2026-05-07 10:45 27.48063 33.18687 23049 ft 464 kts 120°
2026-05-07 10:45 27.46507 33.21840 22209 ft 458 kts 120°
2026-05-07 10:45 27.44960 33.24971 21383 ft 458 kts 120°
2026-05-07 10:45 27.43413 33.28101 20524 ft 458 kts 120°
2026-05-07 10:46 27.41863 33.31233 19675 ft 458 kts 120°
2026-05-07 10:46 27.40314 33.34362 18795 ft 458 kts 120°
2026-05-07 10:46 27.38824 33.37529 17876 ft 458 kts 115°
2026-05-07 10:46 27.37889 33.40940 16972 ft 457 kts 101°
2026-05-07 10:47 27.37385 33.44460 16054 ft 454 kts 98°
2026-05-07 10:47 27.36968 33.47970 15171 ft 452 kts 97°
2026-05-07 10:47 27.36561 33.51454 14421 ft 446 kts 97°
2026-05-07 10:47 27.36052 33.54859 13745 ft 438 kts 105°
2026-05-07 10:48 27.34861 33.57992 12718 ft 436 kts 123°
2026-05-07 10:48 27.32933 33.60457 11898 ft 418 kts 142°
2026-05-07 10:48 27.30477 33.62084 10847 ft 406 kts 161°
2026-05-07 10:48 27.27830 33.62891 10486 ft 381 kts 168°
2026-05-07 10:49 27.25313 33.63538 10378 ft 361 kts 169°
2026-05-07 10:49 27.22928 33.64170 10274 ft 344 kts 168°
2026-05-07 10:49 27.20656 33.64796 10165 ft 328 kts 168°
2026-05-07 10:49 27.18495 33.65409 10054 ft 313 kts 167°
2026-05-07 10:50 27.16427 33.66007 9898 ft 301 kts 167°
2026-05-07 10:50 27.14403 33.66595 9422 ft 301 kts 167°
2026-05-07 10:50 27.12382 33.67187 8995 ft 299 kts 167°
2026-05-07 10:50 27.10382 33.67777 8597 ft 295 kts 167°
2026-05-07 10:51 27.08402 33.68362 8210 ft 293 kts 167°
2026-05-07 10:51 27.06441 33.68947 7812 ft 291 kts 168°
2026-05-07 10:51 27.04486 33.69524 7425 ft 290 kts 168°
2026-05-07 10:51 27.02542 33.70096 7038 ft 288 kts 167°
2026-05-07 10:52 27.00611 33.70666 6657 ft 286 kts 167°
2026-05-07 10:52 26.98689 33.71235 6276 ft 285 kts 167°
2026-05-07 10:52 26.96858 33.72058 5887 ft 286 kts 149°
2026-05-07 10:52 26.95490 33.73655 5446 ft 287 kts 118°
2026-05-07 10:53 26.94990 33.75793 4996 ft 286 kts 88°
2026-05-07 10:53 26.95472 33.77906 4599 ft 280 kts 59°
2026-05-07 10:53 26.96688 33.79546 4173 ft 276 kts 41°
2026-05-07 10:53 26.98134 33.80949 3963 ft 265 kts 39°
2026-05-07 10:54 26.99503 33.82226 3806 ft 255 kts 37°
2026-05-07 10:54 27.00850 33.83484 3423 ft 249 kts 33°
2026-05-07 10:54 27.02327 33.84327 3082 ft 230 kts
2026-05-07 10:54 27.03856 33.84316 2884 ft 213 kts 345°
2026-05-07 10:55 27.05217 33.83872 2810 ft 195 kts 340°
2026-05-07 10:55 27.06465 33.83458 2703 ft 180 kts 342°
2026-05-07 10:55 27.07648 33.83117 2536 ft 168 kts 343°
2026-05-07 10:55 27.08673 33.82626 2410 ft 155 kts 327°
2026-05-07 10:56 27.09545 33.81905 2017 ft 157 kts 329°
2026-05-07 10:56 27.10490 33.81304 1644 ft 156 kts 335°
2026-05-07 10:56 27.11464 33.80921 1394 ft 140 kts 346°
2026-05-07 10:56 27.12390 33.80688 1094 ft 133 kts 348°
2026-05-07 10:57 27.13271 33.80451 784 ft 127 kts 347°
2026-05-07 10:57 27.14095 33.80207 540 ft 118 kts 347°
2026-05-07 10:57 27.14887 33.79973 326 ft 117 kts 347°
2026-05-07 10:57 27.15672 33.79744 181 ft 115 kts 347°
2026-05-07 10:58 27.16435 33.79527 64 ft 111 kts 348°
2026-05-07 10:58 27.17105 33.79331 40 ft 91 kts 345°
2026-05-07 10:58 27.17561 33.79197 35 ft 48 kts 346°
2026-05-07 10:58 27.17804 33.79153 40 ft 23 kts
2026-05-07 10:59 27.17952 33.79195 40 ft 20 kts 41°
2026-05-07 10:59 27.17913 33.79294 42 ft 15 kts 162°
2026-05-07 10:59 27.17811 33.79328 41 ft 16 kts 166°
2026-05-07 10:59 27.17685 33.79362 40 ft 19 kts 168°
2026-05-07 11:00 27.17544 33.79397 38 ft 22 kts 166°
2026-05-07 11:00 27.17397 33.79439 39 ft 22 kts 166°
2026-05-07 11:00 27.17259 33.79496 38 ft 21 kts 130°
2026-05-07 11:00 27.17271 33.79647 38 ft 20 kts 75°
2026-05-07 11:01 27.17311 33.79809 38 ft 23 kts 74°
2026-05-07 11:01 27.17353 33.79985 39 ft 24 kts 76°
2026-05-07 11:01 27.17396 33.80164 40 ft 24 kts 74°
2026-05-07 11:01 27.17436 33.80348 38 ft 25 kts 76°
2026-05-07 11:02 27.17482 33.80538 38 ft 26 kts 73°
2026-05-07 11:02 27.17610 33.80593 39 ft 24 kts 344°
2026-05-07 11:02 27.17769 33.80545 40 ft 24 kts 346°
2026-05-07 11:02 27.17832 33.80536 40 ft 2 kts 65°
2026-05-07 11:03 27.17838 33.80569 40 ft 5 kts 75°
2026-05-07 11:03 27.17847 33.80608 40 ft 5 kts 74°
2026-05-07 11:03 27.17856 33.80643 40 ft 2 kts 74°